Bangor, ME

11:02 PM EDT on August 21, 2017 (GMT -0400)
Bangor International

Weather History for KBGR - February, 2013

Change the Weather History Date:

Tuesday, February 19, 2013

  Actual Average Record
Temperature  
Mean Temperature 29 °F 22 °F  
Max Temperature 41 °F 32 °F 56 °F (1954)
Min Temperature 16 °F 11 °F -13 °F (1967)
Degree Days  
Heating Degree Days 36 43  
Month to date heating degree days 847 863  
Since 1 July heating degree days 5063 5270  
Cooling Degree Days 0 0  
Month to date cooling degree days 0 0  
Year to date cooling degree days 0 0  
Moisture  
Dew Point 13 °F    
Average Humidity 64    
Maximum Humidity 100    
Minimum Humidity 27    
Precipitation  
Precipitation 0.05 in 0.09 in 1.44 in (1960)
Month to date precipitation 0.95 1.68  
Year to date precipitation 1.82 4.57  
Snow  
Snow T in 0.50 in 14.40 in (1960)
Month to date snowfall 30.0 10.3  
Since 1 July snowfall 55.6 46.3  
Snow Depth 14.00 in    
Sea Level Pressure  
Sea Level Pressure 29.94 in    
Wind  
Wind Speed 8 mph (South)    
Max Wind Speed 15 mph    
Max Gust Speed 21 mph    
Visibility 9 miles    
Events Rain , Snow    
T = Trace of Precipitation, MM = Missing Value Source: NWS Daily Summary

Daily Weather History Graph

Daily Weather History Graph

Search for Another Location

Airport or City:

Trip Planner

Search our weather history database for the weather conditions in past years. The results will help you decide how hot, cold, wet, or windy it might be!

Date:

Astronomy

Feb. 19, 2013 Rise Set
Actual Time 6:29 AM EST 5:09 PM EST
Civil Twilight 5:59 AM EST 5:39 PM EST
Nautical Twilight 5:25 AM EST 6:13 PM EST
Astronomical Twilight 4:51 AM EST 6:47 PM EST
Moon 11:30 AM EST (2/19) 2:06 AM EST (2/19)
Length of Visible Light 11h 39m
Length of Day
10h 40m
Waxing Gibbous, 67% of the Moon is Illuminated
Feb 19
Waxing Gibbous
Feb 25
Full
Mar 4
Last Quarter
Mar 11
New
Mar 19
First Quarter

Hourly Weather History & Observations

Time (EST) Temp. Windchill Dew Point Humidity Pressure Visibility Wind Dir Wind Speed Gust Speed Precip Events Conditions
12:53 AM 18.0 °F 8.7 °F -0.9 °F 44% 29.95 in 10.0 mi West 6.9 mph - N/A   Clear
1:53 AM 17.1 °F 7.6 °F -0.9 °F 45% 29.97 in 10.0 mi West 6.9 mph - N/A   Clear
2:53 AM 18.0 °F 5.4 °F -0.9 °F 44% 29.99 in 10.0 mi West 11.5 mph - N/A   Clear
3:53 AM 17.1 °F 5.0 °F -0.9 °F 45% 30.01 in 10.0 mi West 10.4 mph 19.6 mph N/A   Clear
4:53 AM 17.1 °F 4.3 °F -2.9 °F 41% 30.04 in 10.0 mi West 11.5 mph 20.7 mph N/A   Clear
5:53 AM 16.0 °F 3.6 °F -2.9 °F 43% 30.05 in 10.0 mi West 10.4 mph 17.3 mph N/A   Scattered Clouds
6:53 AM 16.0 °F 10.4 °F -2.0 °F 45% 30.06 in 10.0 mi Variable 3.5 mph - N/A   Mostly Cloudy
7:53 AM 18.0 °F 12.7 °F -0.0 °F 45% 30.08 in 10.0 mi WSW 3.5 mph - N/A   Mostly Cloudy
8:53 AM 21.9 °F 17.2 °F 1.9 °F 42% 30.07 in 10.0 mi WSW 3.5 mph - N/A   Scattered Clouds
9:53 AM 27.0 °F 20.5 °F 3.9 °F 37% 30.07 in 10.0 mi NNW 5.8 mph - N/A   Scattered Clouds
10:53 AM 30.0 °F 26.5 °F 7.0 °F 38% 30.04 in 10.0 mi East 3.5 mph - N/A   Scattered Clouds
11:53 AM 34.0 °F 29.8 °F 8.1 °F 34% 30.04 in 10.0 mi WSW 4.6 mph - N/A   Mostly Cloudy
1:53 PM 39.0 °F 36.8 °F 12.9 °F 34% 29.99 in 10.0 mi ESE 3.5 mph - N/A   Mostly Cloudy
2:53 PM 39.9 °F 33.9 °F 8.1 °F 27% 29.98 in 10.0 mi South 9.2 mph - N/A   Scattered Clouds
3:53 PM 36.0 °F 30.3 °F 12.0 °F 37% 29.96 in 10.0 mi South 6.9 mph - N/A   Overcast
4:53 PM 34.0 °F 27.2 °F 17.1 °F 50% 29.95 in 10.0 mi South 8.1 mph - N/A   Overcast
5:53 PM 33.1 °F 28.7 °F 19.9 °F 59% 29.94 in 10.0 mi SE 4.6 mph - N/A   Overcast
7:53 PM 33.1 °F 27.7 °F 24.1 °F 70% 29.86 in 10.0 mi ESE 5.8 mph - N/A   Overcast
8:53 PM 35.1 °F 27.9 °F 30.9 °F 85% 29.81 in 10.0 mi SE 9.2 mph - 0.01 in   Overcast
9:53 PM 36.0 °F 28.5 °F 33.1 °F 89% 29.78 in 8.0 mi SE 10.4 mph - 0.00 in Snow Light Snow
10:43 PM 37.4 °F 31.4 °F 35.6 °F 93% 29.74 in 6.0 mi SE 8.1 mph - 0.00 in Snow Light Snow
10:53 PM 36.0 °F 29.0 °F 35.1 °F 97% 29.74 in 5.0 mi SE 9.2 mph - 0.00 in Snow Light Snow
11:43 PM 37.4 °F 29.8 °F 35.6 °F 93% 29.68 in 6.0 mi ESE 11.5 mph - 0.01 in Rain Light Rain
11:53 PM 37.0 °F 29.3 °F 36.0 °F 96% 29.69 in 6.0 mi ESE 11.5 mph - 0.02 in Rain Light Rain